Location: Oberkirch
(48.5323°N, 8.0787°E)
Time: 18:40:59
(UTC+00:00)

DOVE 4 - Visible Passes

Search period start: 07 March 2026 00:00
Search period end: 17 March 2026 00:00
Orbit: 572 x 756 km, 97.7° (Epoch: 7 March)

Date Brightness Start Highest point End Pass type
(mag) Time Alt. Az. Time Alt. Az. Time Alt. Az.
7 Mar ? 19:15:53 10° N 19:20:20 81° WNW 19:24:59 10° SSW visible
7 Mar ? 20:55:05 10° NW 20:56:42 12° WNW 20:58:21 10° W visible
8 Mar ? 04:45:35 10° E 04:48:09 16° ENE 04:50:44 10° NNE visible
8 Mar ? 18:10:14 10° NE 18:13:57 25° E 18:17:47 10° SSE visible
8 Mar ? 19:46:55 10° N 19:51:06 41° WNW 19:55:29 10° SW visible
9 Mar ? 05:15:09 10° SE 05:18:43 30° ENE 05:22:20 10° N visible
9 Mar ? 18:40:36 10° NNE 18:44:57 48° E 18:49:31 10° S visible
9 Mar ? 20:18:14 10° NNW 20:21:45 23° WNW 20:25:23 10° WSW visible
10 Mar ? 19:11:19 10° NNE 19:15:51 87° W 19:20:36 10° SSW visible
10 Mar ? 20:50:10 10° NNW 20:52:16 13° WNW 20:54:25 10° W visible
11 Mar ? 04:41:15 10° E 04:43:39 15° ENE 04:46:05 10° NNE visible
11 Mar ? 18:05:45 10° NE 18:09:26 23° E 18:13:14 10° SSE visible
11 Mar ? 19:42:18 10° N 19:46:37 46° WNW 19:51:09 10° SW visible
12 Mar ? 05:10:42 10° SE 05:14:11 28° ENE 05:17:45 10° N visible
12 Mar ? 18:36:03 10° NNE 18:40:27 44° E 18:45:02 10° S visible
12 Mar ? 20:13:34 10° N 20:17:17 25° WNW 20:21:08 10° WSW visible
13 Mar ? 19:06:44 10° NNE 19:11:21 86° ESE 19:16:11 10° SSW visible
13 Mar ? 20:45:18 10° NNW 20:47:48 15° WNW 20:50:21 10° W visible
14 Mar ? 04:36:54 10° E 04:39:08 14° ENE 04:41:24 10° NNE visible
14 Mar ? 18:01:15 10° NE 18:04:53 22° E 18:08:38 10° SE visible
14 Mar ? 19:37:40 10° N 19:42:07 50° WNW 19:46:47 10° SW visible
15 Mar ? 05:06:12 10° ESE 05:09:37 26° ENE 05:13:09 10° N visible
15 Mar ? 18:31:29 10° NNE 18:35:54 41° E 18:40:31 10° SSE visible
15 Mar ? 20:08:52 10° N 20:12:47 28° WNW 20:16:51 10° WSW visible
16 Mar ? 19:02:07 10° NNE 19:06:49 80° ESE 19:11:43 10° S visible
16 Mar ? 20:40:29 10° NNW 20:43:18 16° WNW 20:46:12 10° W visible
